Вернуться в каталог

STARLINK-31594

АктивенСвязьVLEO
NORAD 59332·PAYLOAD·🇺🇸 United States

Запущен Mar 25, 2024 с Cape Canaveral Space Force Station

Loading…

Ближайшие Пролёты (ближайшие 24 часа)

TLE

СвежийSource: CelesTrak SupGP

Эпоха: Sep 15, 2026, 01:42 UTC

1 59332C 24057N   26258.07131944 -.00042879  00000+0 -15531-2 0  2588
2 59332  42.9996 208.8447 0000916 261.1349  36.9326 15.27598871    11

Отслеживайте STARLINK-31594 в реальном времени с AllMySat

Download on the App Store